Regional Weather Roundup
Issued by NWS

Home | Current Version | Previous Version | Text Only | Print | Product List | Glossary On
Versions: 1 2 3 4 5 6 7 8 9 10 11 12 13 14 15 16 17 18 19 20 21 22 23 24 25 26 27 28 29 30 31 32 33 34 35 36 37 38 39 40 41 42 43 44 45 46 47 48 49 50
000
ASUS43 KLSX 171007
RWRMO

WEATHER SUMMARY FOR MISSOURI
NATIONAL WEATHER SERVICE SPRINGFIELD MO
500 AM CDT WED SEP 17 2014

NOTE: "FAIR" INDICATES FEW OR NO CLOUDS BELOW 12,000 FEET WITH NO
       SIGNIFICANT WEATHER AND/OR OBSTRUCTIONS TO VISIBILITY.
       CURRENT SKY AND/OR WEATHER CONDITIONS ARE NOT AVAILABLE FOR
       CHILLICOTHE AND FARMINGTON.

MOZ001>031-035>038-043-044-053-054-171100-
...NORTHERN AND WESTERN MISSOURI...

CITY           SKY/WX    TMP DP  RH WIND       PRES   REMARKS
KANSAS CTY INT CLOUDY    63  60  90 SE6       29.93F
KANSAS C DTWN  CLOUDY    65  59  81 E5        29.92F
LEE`S SUMMIT   LGT RAIN  62  60  93 SE6       29.94F
ST JOSEPH      CLOUDY    63  59  87 SE3       29.93F
CHILLICOTHE      N/A     60  56  86 E5        29.97F
KIRKSVILLE     CLOUDY    55  53  93 SE5       30.01F

$$
MOZ066>068-077>081-088>096-101>105-171100-
...SOUTHWEST MISSOURI...

CITY           SKY/WX    TMP DP  RH WIND       PRES   REMARKS
SPRINGFIELD    CLOUDY    64  63  96 S12       29.98F FOG
JOPLIN         PTCLDY    68  66  93 S13       29.95F

$$
MOZ032>034-039>042-045>050-055>058-069>072-171100-
...CENTRAL MISSOURI...

CITY           SKY/WX    TMP DP  RH WIND       PRES   REMARKS
COLUMBIA         N/A    N/A N/A N/A MISG      29.99F
JEFFERSON CITY MOCLDY    58  55  90 SE6       29.99F
ROLLA          CLOUDY    56  54  93 SE7       30.01F
SEDALIA        CLOUDY    63  60  90 SE7       29.96F
WHITEMAN AFB   PTCLDY    62  60  94 SE6       29.93F
OSAGE BEACH    CLOUDY    61  57  88 SE3       29.98F

$$
MOZ051-052-059>065-171100-
...EAST CENTRAL MISSOURI...

CITY           SKY/WX    TMP DP  RH WIND       PRES   REMARKS
ST LOUIS INTL  PTCLDY    54  51  90 CALM      30.05F
SPIRIT OF STL  PTCLDY    48  48 100 CALM      30.04F FOG
ST CHARLES     PTCLDY    46  46 100 NE3       30.05F FOG

$$
MOZ072>076-082>087-097>100-106>115-171100-
...SOUTH CENTRAL AND SOUTHEAST MISSOURI...

CITY           SKY/WX    TMP DP  RH WIND       PRES   REMARKS
CAPE GIRARDEAU FOG       48  47  96 CALM      30.06F VSB 1/4
FARMINGTON     PTCLDY    50  48  93 CALM      30.07F
POPLAR BLUFF   MOCLDY    55  51  86 NE3       30.04F
WEST PLAINS    CLOUDY    63  58  83 SE3       30.03F

$$


USA.gov is the U.S. government's official web portal to all federal, state and local government web resources and services.